"Pseudo-MPEC" for C0E88W5

Created 2022 Nov 25 13:22:05 UT using Find_Orb

Click here for an explanation of pseudo-MPECs

 
 Astrometry: 
     C0E88W5* C2022 11 24Iti^,C9x(if=S6GTbX!:+s(]g\KEBGHj`sv)fNeV;(c+*Hb?bG8DV00
     C0E88W5  C2022 11 24^Z'/YIV[@FB9v%%%k5tsy%#='?6DA)h%Astrometry=IivME1mFSV00
     C0E88W5  C2022 11 24`vY?U$UOQT//Kj(a4Ij#O-L]S=oF=`n5#9[Ski:,(!u,Fx5S$-kXV00
     C0E88W5 KC2022 11 24.33296 02 13 23.68 +33 44 57.2    ~BO8M 20.7 RoNEOCP291
     C0E88W5 KC2022 11 24.33481 02 13 22.94 +33 44 40.9    ~BO8M 20.7 RoNEOCP291
     C0E88W5 KC2022 11 24.33668 02 13 22.22 +33 44 25.0    ~BO8M 20.5 RoNEOCP291
     C0E88W5 KC2022 11 24$`XBb?jxEmkZ6IpjcWMRYdPnr.!c@%#y!?Eq=9=wmSFdDcuq'M*FL01
     C0E88W5 KC2022 11 24WRreS5,28+h1#3)@F=tS=8w3Ha`,redacted;-=^Y\knh$`MFr*YL01
     C0E88W5 KC2022 11 24UJ`UA4b8`9bZSoAJ-!,yoO#0V#\a\kevFadbyjH)ex64?`Atm@DvL01
     C0E88W5 KC2022 11 24wTRjm7[Y3[@RC?BF71iyc#@]J;'F85Rm%F*`clickYqAyIerl10LL01
     C0E88W5 KC2022 11 24vShuEoo0[oIqpvH][KXZuw,Abpm^J[3f')@Pmpsfo$@,_lesgb%bL01
     C0E88W5 KC2022 11 24KvUcjQfK4-V'/Vx\XdQ\+^uQ#n?Mj#5.#Y_D+sQaT:=RvOq'eVe`L01
     C0E88W5 KC2022 11 24.85675802 10 18.10 +32 29 38.2    ~BOLq 19.8 GXNEOCP595
     C0E88W5 KC2022 11 24.86968602 10 12.87 +32 27 44.4    ~BOLq       XNEOCP595
     C0E88W5 KC2022 11 24.88260502 10 07.75 +32 25 51.1    ~BOLq       XNEOCP595
     C0E88W5 KC2022 11 24.88386302 10 08.669+32 25 29.75   ~BOLq 20.1 GVNEOCPJ95
     C0E88W5 KC2022 11 24.88923902 10 06.518+32 24 42.30   ~BOLq 20.7 GVNEOCPJ95
     C0E88W5 KC2022 11 24.89693502 10 03.492+32 23 35.52   ~BOLq 19.8 GVNEOCPJ95
     C0E88W5 2C2022 11 24-B.%b[_,_tnbSS,87S5+Jg'y8/dHN$Uq2Z3nssSmho!uVmGGkSq2J04
     C0E88W5 2C2022 11 244qKC5sL:)wL=dt7]'^KQ9Ga-#..n;%PP+M@YSZbP`Y:5px/#mHJTJ04
     C0E88W5 KC2022 11 24/M==A2wb'-jGfw[(NBbB12tMAxuDH)-PFKKYMu)5?Q!=2^E.FA?X958
     C0E88W5 2C2022 11 24GTnBxpK_FL0r_fy4p4.!j%gNJvNko`ap:U8lRLDx])RqS@YT0^A8J04
     C0E88W5 KC2022 11 24bq@.A'o7u%*B+t1Fj0]M.\h4GL09i[Zw;Fn6Kx20`BQ,]Xk9^3M+958
     C0E88W5 KC2022 11 24:7y)sYONLCdRAQbu7^uhD2GF$`+kgherej+%i4R:'PA%osFF5v]t958
     C0E88W5 KC2022 11 24q^'?bg$S.n9g8forM?nB!Ecn\:qQEtWX^]t%a'4/@!!Hupjv;SVc104
     C0E88W5 KC2022 11 24i\#:_.`3fXE$os*0Tr?usuwHkgD`@Ic]#v4c/Tu.Yj'=[5t0bo-e104
     C0E88W5 KC2022 11 25`t/ndIW!)[Qqx`Ltn_uV?0EmAabNL#6VqYOUbd,YF_6nD/C(Syut734
     C0E88W5 KC2022 11 25a7#39IoQ#N2jD#acQ2a`/bhc;=7T:6Gt9pL=x,)hQHll@UC-^X%t734
     C0E88W5 KC2022 11 25DqPx1fF`Zexplanation2Q;Z]I()o#^m0UQLg1,;U#l.h2.Nl$`C734
     C0E88W5 KC2022 11 25?Y$W\``,=yyM.*TO;`kKc7YQ#gZJktGe-%vD@\P]5OeCY?st%EB/734

Station data:
(104) San Marcello Pistoiese  (N44.064178 E10.803750)  Italy.  Observers P.
   Bacci, M. Maestripieri. Measurers P. Bacci, L. Tesi, G. Fagioli. 0.60-m
   reflector + CCD.
(291) LPL/Spacewatch II  (N31.961669 W111.599905)  US/Arizona.  Observers J.
   V. Scotti, R. S. McMillan. 1.8-m f/2.7 reflector + CCD.
(595) Farra d'Isonzo  (N45.915731 E13.525780)  Italy.  Observers S. Aschi, E.
   Pettarin, G. Panterotto. Measurers S. Aschi, E. Pettarin. 0.40-m f/5.15
   reflector + CCD.
(734) Farpoint Observatory, Eskridge  (N38.890104 W96.001400)  US/Kansas.
   Observer G. Hug. 0.69-m reflector + CCD.
(958) Observatoire de Dax  (N43.693324 W1.030390)  France.  Observer P.
   Dupouy. 0.32-m Schmidt-Cassegrain.
(J04) ESA Optical Ground Station, Tenerife  (N28.300922 W16.511830)  Canary
   Islands (Spain).  Observer D. Abreu. Measurers M. Micheli, D. Koschny, E.
   Schwab, M. Busch, A. Knöfel. 1.0-m f/4.4 reflector + CCD.
(J95) Great Shefford  (N51.474969 W1.447003)  UK/England.  Observer P.
   Birtwhistle. 0.41-m f/6.3 Schmidt-Cassegrain + CCD.
(L01) Višnjan Observatory, Tičan  (N45.290897 E13.749300)  Croatia.
   Observers K. Korlević, D. Pujagic, V. Dobos. Measurers D. Pujagic, K.
   Korlević. 1.0-m f/2.9 reflector + CCD.
(V00) Kitt Peak-Bok  (N31.963125 W111.600190)  US/Arizona.  Observers T. A.
   Pruyne, B. M. Africano, E. J. Christensen, G. A. Farneth, D. C. Fuls, A.
   R. Gibbs, A. D. Grauer, H. Gröller, J. A. Johnson, R. A. Kowalski, S. M.
   Larson, G. J. Leonard, D. Rankin, R. L. Seaman, F. C. Shelly, K. W.
   Wierzchoś. 2.25-m reflector + CCD.

Orbital elements:  C0E88W5
   Perihelion 2023 Mar 8.43609 +/- 0.148 TT = 10:27:57 (JD 2460011.93609)
Epoch 2022 Nov 25.0 TT = JDT 2459908.5   Earth MOID: 0.0350   Ve: 0.0691
M 250.25178662 +/- 0.23             (J2000 ecliptic)          AutoNEOCP
n   1.06102442 +/- 0.000824         Peri.  304.72799 +/- 0.15
a   0.95203400 +/- 0.000493         Node   247.32103 +/- 0.011
e   0.2246521 +/- 0.000725          Incl.   12.00846 +/- 0.048
P   0.93/339.29d           H 24.4   G  0.15   U  8.0
q 0.73815747 +/- 0.000668    Q 1.16591053 +/- 0.00106
From 30 observations 2022 Nov. 24-25 (24.1 hr); mean residual 0".44
Residuals in arcseconds: 
221124 V00  .06-  .07-    221124 L01  .28-  .66+    221124 958  .72+  .56-    
221124 V00  .04-  .02-    221124 L01  .12+  .38+    221124 J04  .03+  .18-    
221124 V00  .05+  .04-    221124 595  .08+  .75+    221124 958  .53-  .46-    
221124 291  .06+  .05+    221124 595  .73-  .10-    221124 958  .62-  .38+    
221124 291  .06+  .27-    221124 595  .18-  .16-    221124 104  .53-  .22+    
221124 291  .41+  .01-    221124 J95  .31+  .13+    221124 104  1.4-  .25+    
221124 L01  .25-  .05+    221124 J95  .03-  .40-    221125 734  .92+  .42+    
221124 L01  .25-  .26+    221124 J95  .18+  .09+    221125 734  .83+  .26+    
221124 L01  .00   .37+    221124 J04  .16-  .09-    221125 734  .86-  1.1-    
221124 L01  .22-  .53+    221124 J04  .08-  .12-    221125 734  .19+  .37+    

Ephemerides (geocentric):
Date (UTC) HH   RA             Dec           delta  r     elong  mag " sig PA
---- --------  ------------   ------------  ------ ------ -----  --- --------
2022 11 25 13  02 06 09.848   +30 47 53.27  .08169 1.0599 151.8 20.3 .202 171
2022 11 25 14  02 05 54.863   +30 41 31.71  .08160 1.0598 151.8 20.3 .212 172
2022 11 25 15  02 05 39.887   +30 35 09.15  .08151 1.0596 151.7 20.3 .222 172
2022 11 25 16  02 05 24.920   +30 28 45.61  .08141 1.0595 151.7 20.3 .232 173
2022 11 25 17  02 05 09.962   +30 22 21.08  .08132 1.0594 151.6 20.3 .243 174
2022 11 25 18  02 04 55.013   +30 15 55.55  .08123 1.0593 151.5 20.3 .254 174
2022 11 25 19  02 04 40.073   +30 09 29.05  .08114 1.0591 151.5 20.3 .266 175
2022 11 25 20  02 04 25.142   +30 03 01.55  .08105 1.0590 151.4 20.3 .278 176
2022 11 25 21  02 04 10.220   +29 56 33.08  .08097 1.0589 151.3 20.3 .290 176
2022 11 25 22  02 03 55.308   +29 50 03.62  .08088 1.0587 151.3 20.3 .303 177
2022 11 25 23  02 03 40.406   +29 43 33.19  .08079 1.0586 151.2 20.3 .316 177
2022 11 26 00  02 03 25.513   +29 37 01.77  .08070 1.0585 151.1 20.3 .329 178
2022 11 26 01  02 03 10.629   +29 30 29.39  .08061 1.0584 151.1 20.3 .343 179
2022 11 26 02  02 02 55.756   +29 23 56.03  .08053 1.0582 151.0 20.3 .358 179
2022 11 26 03  02 02 40.892   +29 17 21.70  .08044 1.0581 150.9 20.3 .372   0
2022 11 26 04  02 02 26.038   +29 10 46.40  .08035 1.0580 150.9 20.3 .387   0
2022 11 26 05  02 02 11.193   +29 04 10.13  .08027 1.0578 150.8 20.3 .403   1
2022 11 26 06  02 01 56.359   +28 57 32.90  .08018 1.0577 150.7 20.3 .419   2
2022 11 26 07  02 01 41.535   +28 50 54.70  .08010 1.0576 150.7 20.3 .435   2
2022 11 26 08  02 01 26.721   +28 44 15.55  .08001 1.0575 150.6 20.3 .452   3
2022 11 26 09  02 01 11.917   +28 37 35.44  .07993 1.0573 150.5 20.3 .469   3
2022 11 26 10  02 00 57.124   +28 30 54.37  .07985 1.0572 150.4 20.3 .487   4
2022 11 26 11  02 00 42.340   +28 24 12.36  .07976 1.0571 150.4 20.3 .505   4
2022 11 26 12  02 00 27.568   +28 17 29.39  .07968 1.0569 150.3 20.3 .523   5
2022 11 26 13  02 00 12.805   +28 10 45.47  .07960 1.0568 150.2 20.3 .542   5
2022 11 26 14  01 59 58.054   +28 04 00.61  .07952 1.0567 150.1 20.3 .562   6
2022 11 26 15  01 59 43.313   +27 57 14.80  .07944 1.0566 150.1 20.3 .582   6
2022 11 26 16  01 59 28.582   +27 50 28.06  .07935 1.0564 150.0 20.3 .602   7
2022 11 26 17  01 59 13.863   +27 43 40.38  .07927 1.0563 149.9 20.3 .623   7
2022 11 26 18  01 58 59.154   +27 36 51.76  .07919 1.0562 149.8 20.3 .645   7
2022 11 26 19  01 58 44.456   +27 30 02.21  .07911 1.0560 149.7 20.3 .667   8
2022 11 26 20  01 58 29.769   +27 23 11.74  .07903 1.0559 149.7 20.3 .689   8
2022 11 26 21  01 58 15.093   +27 16 20.33  .07896 1.0558 149.6 20.3 .712   9
2022 11 26 22  01 58 00.428   +27 09 28.01  .07888 1.0556 149.5 20.3 .735   9
2022 11 26 23  01 57 45.775   +27 02 34.76  .07880 1.0555 149.4 20.3 .759   9
2022 11 27 00  01 57 31.132   +26 55 40.60  .07872 1.0554 149.3 20.3 .783  10
2022 11 27 01  01 57 16.501   +26 48 45.52  .07865 1.0552 149.2 20.3 .808  10
2022 11 27 02  01 57 01.881   +26 41 49.53  .07857 1.0551 149.2 20.3 .833  11
2022 11 27 03  01 56 47.273   +26 34 52.64  .07849 1.0550 149.1 20.3 .859  11
2022 11 27 04  01 56 32.676   +26 27 54.84  .07842 1.0549 149.0 20.3 .885  11
2022 11 27 05  01 56 18.091   +26 20 56.13  .07834 1.0547 148.9 20.3 .912  12
2022 11 27 06  01 56 03.517   +26 13 56.53  .07827 1.0546 148.8 20.3 .940  12
2022 11 27 07  01 55 48.955   +26 06 56.04  .07819 1.0545 148.7 20.3 .967  12
2022 11 27 08  01 55 34.405   +25 59 54.65  .07812 1.0543 148.6 20.3 1.00  12
2022 11 27 09  01 55 19.866   +25 52 52.38  .07804 1.0542 148.5 20.3 1.02  13
2022 11 27 10  01 55 05.340   +25 45 49.22  .07797 1.0541 148.5 20.3 1.05  13
2022 11 27 11  01 54 50.825   +25 38 45.17  .07790 1.0539 148.4 20.3 1.08  13
2022 11 27 12  01 54 36.322   +25 31 40.26  .07783 1.0538 148.3 20.3 1.11  13